Погода в Гандии

Испания     38°57′42″N   0°11′10″E
темп.,
°C
ветер,
м/с
пор.,
м/с
влажн.,
%
обл.,
%
осадки,
мм/ч
давл.,
гПа
погр.,
м
20 сентября, пн
пн2023:00+20юв11660 0.0 101932
02:00+19зюз11700 0.0 101935
05:00+18зюз22724 0.0 101922
08:00+17з11740 0.0 101918
11:00+23вюв23500 0.0 1019855
14:00+25в65455 0.0 10191218
17:00+24в664523 0.0 10171110
20:00+21в356232 0.1 1018207
21 сентября, вт
вт2123:00+19в137852 2.3 1020122
02:00+18всв4776100 3.9 1021656
05:00+19всв257096 0.8 1020404
08:00+17с2474100 1.6 1021506
11:00+17зсз127378 0.6 1022377
14:00+18св457493 0.8 1022926
17:00+18св5678100 1.5 1021752
20:00+18св5781100 4.9 1021587
22 сентября, ср
ср2223:00+18св4685100 4.2 1021516
02:00+18св358698 6.2 1020368
05:00+18ссв248578 1.9 1019200
08:00+17с3596100 12.3 1018373
11:00+18зсз229091 15.0 1019311
14:00+17с5994100 22.9 1018722
17:00+17с4888100 1.4 1017769
20:00+17ссв0288100 1.9 1016209
23 сентября, чт
чт2323:00+16юз11907 0.0 101740
02:00+15зюз2290100 0.0 101651
05:00+15юз22870 0.0 101527
08:00+15з118818 0.0 101529
11:00+19з117162 0.0 1017345
14:00+20ссв4679100 0.3 1017766
17:00+19ссв4690100 1.6 1015548
20:00+19ссв3693100 3.7 1015361
24 сентября, пт
пт2423:00+20с1292100 2.5 1016104
02:00+19с2593100 3.2 1015288
05:00+19ссз3594100 1.4 1014386
08:00+19сз2595100 3.4 1014367
11:00+18ссз2393100 1.1 1015322
14:00+19сз2491100 2.1 1015505
17:00+19сз229299 1.3 1014258
20:00+19св119394 2.2 1015123